GW4602 Weather Reports


time (UTC)temp
F
wind
direction
speed
knots
gust
knots
rain 1hr
in
rain 24hr
in
rain mn
in
humidity
%
barometer
mb
20260906110949 65 101 0.0 0.0 0.00 0.00 0.00 99 1017.7
20260906110444 65 103 0.0 0.0 0.00 0.00 0.00 99 1017.7
20260906105943 65 103 0.0 0.9 0.00 0.00 0.00 99 1017.6
20260906105439 65 113 0.0 0.0 0.00 0.00 0.00 99 1017.6
20260906104936 65 109 0.0 0.0 0.00 0.00 0.00 99 1017.6
20260906104434 65 109 0.0 0.0 0.00 0.00 0.00 99 1017.5
20260906103933 65 110 0.0 0.0 0.00 0.00 0.00 99 1017.5
20260906103432 65 122 0.0 0.0 0.00 0.00 0.00 99 1017.5
20260906102927 65 105 0.0 0.0 0.00 0.00 0.00 99 1017.2
20260906102426 65 105 0.0 0.0 0.00 0.00 0.00 99 1017.2
20260906101921 65 105 0.0 0.0 0.00 0.00 0.00 99 1017.3
20260906101416 65 105 0.0 0.0 0.00 0.00 0.00 99 1017.2
20260906100912 65 105 0.0 0.0 0.00 0.00 0.00 99 1017.2
20260906100411 65 105 0.0 0.0 0.00 0.00 0.00 99 1017.2
20260906095906 65 105 0.0 0.0 0.00 0.00 0.00 99 1017.1
20260906095401 65 105 0.0 0.0 0.00 0.00 0.00 99 1017.3
20260906094855 65 105 0.0 0.9 0.00 0.00 0.00 99 1017.2
20260906094350 65 101 0.9 1.7 0.00 0.00 0.00 99 1017.0
20260906093847 65 165 0.0 0.0 0.00 0.00 0.00 99 1017.3
20260906093343 65 242 0.0 0.0 0.00 0.00 0.00 99 1017.1
20260906092842 65 118 0.0 0.0 0.00 0.00 0.00 99 1016.8
20260906092337 65 118 0.0 0.0 0.00 0.00 0.00 99 1016.8
20260906091833 65 112 0.0 0.0 0.00 0.00 0.00 99 1016.8
20260906091329 65 116 1.7 1.7 0.00 0.00 0.00 99 1016.9
20260906090825 65 125 1.7 2.6 0.00 0.00 0.00 99 1016.9
20260906090324 65 107 0.9 2.6 0.00 0.00 0.00 99 1016.5
20260906085824 65 109 0.0 0.0 0.00 0.00 0.00 99 1016.7
20260906085318 65 121 0.0 0.0 0.00 0.00 0.00 99 1016.6
20260906084812 65 112 0.0 0.9 0.00 0.00 0.00 99 1016.6
20260906084312 64 113 0.0 0.9 0.00 0.00 0.00 99 1016.6
20260906083807 64 105 0.9 1.7 0.00 0.00 0.00 99 1016.5
20260906083257 65 114 1.7 1.7 0.00 0.00 0.00 99 1016.6
20260906082751 65 115 1.7 1.7 0.00 0.00 0.00 99 1016.7
20260906082246 65 115 0.0 0.0 0.00 0.00 0.00 99 1016.7
20260906081742 65 119 0.0 0.0 0.00 0.00 0.00 99 1016.7
20260906081237 65 84 0.0 0.0 0.00 0.00 0.00 99 1016.8
20260906080733 65 90 0.0 0.0 0.00 0.00 0.00 99 1016.9
20260906080229 65 111 0.0 0.0 0.00 0.00 0.00 99 1016.7
20260906075723 65 119 1.7 1.7 0.00 0.00 0.00 99 1016.6
20260906075218 65 113 0.0 0.0 0.00 0.00 0.00 99 1016.7
20260906074713 65 123 0.0 0.0 0.00 0.00 0.00 99 1016.9
20260906074213 64 123 0.0 0.0 0.00 0.00 0.00 99 1016.7
20260906073708 64 123 0.0 0.0 0.00 0.00 0.00 99 1016.8
20260906073203 64 131 0.0 0.0 0.00 0.00 0.00 99 1016.4
20260906072658 64 205 0.0 0.0 0.00 0.00 0.00 99 1016.7
20260906072154 64 134 0.0 0.0 0.00 0.00 0.00 99 1016.5
20260906071650 64 133 0.0 0.0 0.00 0.00 0.00 99 1016.8
20260906071149 64 133 0.0 0.0 0.00 0.00 0.00 99 1016.8
20260906070646 64 130 0.0 0.0 0.00 0.00 0.00 99 1016.8
20260906070142 64 136 0.0 0.0 0.00 0.00 0.00 99 1016.8
20260906065641 64 92 0.0 0.0 0.00 0.00 0.00 99 1016.7
20260906065136 65 90 0.0 0.0 0.00 0.00 0.00 99 1017.1
20260906064632 64 91 0.0 0.0 0.00 0.00 0.00 99 1016.9
20260906064126 64 91 0.0 0.0 0.00 0.00 0.00 99 1016.8
20260906063621 64 127 0.0 0.0 0.00 0.00 0.00 99 1016.7
20260906063118 64 127 0.0 0.0 0.00 0.00 0.00 99 1017.0
20260906062613 64 128 0.0 0.9 0.00 0.00 0.00 99 1017.0
20260906062112 64 112 0.9 1.7 0.00 0.00 0.00 99 1017.1
20260906061608 64 136 0.0 0.0 0.00 0.00 0.00 99 1017.1
20260906061108 64 176 0.0 0.0 0.00 0.00 0.00 99 1017.2
20260906060604 64 174 0.0 0.0 0.00 0.00 0.00 99 1017.0
20260906055557 64 222 0.0 0.0 0.00 0.00 0.00 99 1017.1
20260906055052 64 149 0.0 0.0 0.00 0.00 0.00 99 1017.2
20260906054547 64 149 0.0 0.0 0.00 0.00 0.00 99 1017.1
20260906054042 64 156 0.0 0.0 0.00 0.00 0.00 99 1017.0
20260906053538 64 251 0.0 0.0 0.00 0.00 0.00 99 1017.1
20260906053034 64 99 0.0 0.0 0.00 0.00 0.00 99 1016.9
20260906052529 64 100 0.0 1.7 0.00 0.00 0.00 99 1017.0
20260906052026 65 245 0.0 0.0 0.00 0.00 0.00 99 1017.0
20260906051521 64 269 0.0 0.0 0.00 0.00 0.00 99 1017.3
20260906051017 64 126 0.0 0.0 0.00 0.00 0.00 99 1017.3
20260906050512 64 137 1.7 1.7 0.00 0.00 0.00 99 1017.3
20260906050007 65 167 0.0 0.0 0.00 0.00 0.00 99 1017.4
20260906045505 65 167 0.0 0.0 0.00 0.00 0.00 99 1017.4
20260906045001 65 167 0.0 0.0 0.00 0.00 0.00 99 1017.0
20260906044455 65 163 0.0 0.0 0.00 0.00 0.00 99 1017.0
20260906043952 65 218 0.0 0.0 0.00 0.00 0.00 99 1017.0
20260906043447 65 232 0.0 0.0 0.00 0.00 0.00 99 1016.7
20260906042943 65 265 0.0 0.0 0.00 0.00 0.00 99 1016.9
20260906042442 65 265 0.0 0.0 0.00 0.00 0.00 99 1017.0
20260906041936 65 225 0.0 0.0 0.00 0.00 0.00 99 1017.0
20260906041432 65 126 0.0 2.6 0.00 0.00 0.00 99 1017.1
20260906040927 65 307 0.0 0.0 0.00 0.00 0.00 99 1017.0
20260906040422 65 272 0.0 0.0 0.00 0.00 0.00 99 1017.2
20260906035917 65 272 0.0 0.0 0.00 0.00 0.00 99 1017.4
20260906035413 65 230 0.0 0.0 0.00 0.00 0.00 99 1017.5
20260906034908 65 230 0.0 0.0 0.00 0.00 0.00 99 1017.9
20260906034402 66 87 0.0 0.0 0.00 0.00 0.00 99 1017.7
20260906033858 65 87 0.0 0.0 0.00 0.00 0.00 99 1017.9
20260906033357 66 80 0.0 0.0 0.00 0.00 0.00 99 1017.6
20260906032854 66 80 0.0 0.0 0.00 0.00 0.00 99 1017.9
20260906032350 66 80 0.0 0.0 0.00 0.00 0.00 99 1017.7
20260906031844 66 80 0.0 0.0 0.00 0.00 0.00 99 1017.9
20260906031340 66 80 0.0 0.0 0.00 0.00 0.00 99 1017.7
20260906030840 66 80 0.0 0.0 0.00 0.00 0.00 99 1017.6
20260906030335 66 80 0.0 0.0 0.00 0.00 0.00 99 1017.6
20260906025834 66 80 0.0 0.0 0.00 0.00 0.00 99 1017.5
20260906025329 66 80 0.0 0.0 0.00 0.00 0.00 99 1017.7
20260906024827 66 80 0.0 0.0 0.00 0.00 0.00 99 1017.9
20260906024326 66 80 0.0 0.0 0.00 0.00 0.00 99 1017.7
20260906023823 66 80 0.0 0.0 0.00 0.00 0.00 99 1017.3
20260906023318 67 80 0.0 0.0 0.00 0.00 0.00 99 1017.5
20260906022814 67 80 0.0 0.0 0.00 0.00 0.00 99 1017.5
20260906022308 67 80 0.0 0.0 0.00 0.00 0.00 99 1017.5
20260906021804 67 80 0.0 0.0 0.00 0.00 0.00 99 1017.5
20260906021303 67 35 0.0 0.0 0.00 0.00 0.00 99 1017.4
20260906020758 67 35 0.0 0.0 0.00 0.00 0.00 99 1017.4
20260906020258 67 35 0.0 0.0 0.00 0.00 0.00 99 1017.5
20260906015758 67 35 0.0 0.0 0.00 0.00 0.00 99 1017.6
20260906015256 67 35 0.0 0.0 0.00 0.00 0.00 99 1017.5
20260906014751 68 35 0.0 0.0 0.00 0.00 0.00 99 1017.4
20260906014247 68 30 0.0 0.0 0.00 0.00 0.00 99 1017.5
20260906013743 68 24 0.0 0.0 0.00 0.00 0.00 99 1017.4
20260906013243 68 13 0.0 0.0 0.00 0.00 0.00 98 1017.3
20260906012738 68 13 0.0 0.0 0.00 0.00 0.00 97 1017.1
20260906012233 68 13 0.0 0.0 0.00 0.00 0.00 98 1017.0
20260906011729 69 11 0.0 0.0 0.00 0.00 0.00 97 1017.2
20260906011228 69 11 0.0 0.0 0.00 0.00 0.00 97 1017.1
20260906010724 69 2 0.0 0.0 0.00 0.00 0.00 97 1017.1
20260906010220 69 315 0.0 0.0 0.00 0.00 0.00 97 1016.8
20260906005721 69 243 0.0 0.0 0.00 0.00 0.00 96 1016.8
20260906005214 70 179 0.0 0.0 0.00 0.00 0.00 96 1016.7
20260906004713 70 73 0.9 1.7 0.00 0.00 0.00 96 1016.6
20260906004208 70 129 0.9 1.7 0.00 0.00 0.00 95 1016.6
20260906003703 70 192 0.0 0.0 0.00 0.00 0.00 95 1016.7
20260906003159 70 195 0.0 0.0 0.00 0.00 0.00 94 1016.7
20260906002659 71 237 0.0 0.0 0.00 0.00 0.00 93 1016.7
20260906002154 71 264 0.0 0.0 0.00 0.00 0.00 93 1016.8
20260906001649 71 251 0.0 0.0 0.00 0.00 0.00 92 1016.5
20260906001149 72 213 0.0 0.0 0.00 0.00 0.00 91 1016.5
20260906000645 72 206 0.9 0.9 0.00 0.00 0.00 91 1016.5
20260906000140 72 224 0.0 0.0 0.00 0.00 0.00 89 1016.5
20260905235639 73 222 0.0 0.0 0.00 0.00 0.00 88 1016.5
20260905235134 74 226 0.0 0.0 0.00 0.00 0.00 87 1016.4
20260905234630 74 238 0.0 0.0 0.00 0.00 0.00 85 1016.4
20260905234126 75 209 0.0 0.0 0.00 0.00 0.00 84 1016.6
20260905233625 75 231 0.0 0.0 0.00 0.00 0.00 81 1016.5
20260905233120 75 225 1.7 1.7 0.00 0.00 0.00 81 1016.5
20260905232615 76 242 0.9 2.6 0.00 0.00 0.00 81 1016.5
20260905232106 77 236 1.7 1.7 0.00 0.00 0.00 78 1016.6
20260905231601 77 229 0.9 1.7 0.00 0.00 0.00 78 1016.5
20260905231057 78 229 0.0 0.0 0.00 0.00 0.00 77 1016.4
20260905230556 78 250 0.0 0.0 0.00 0.00 0.00 75 1016.6
20260905230054 79 231 0.0 0.9 0.00 0.00 0.00 75 1016.4
20260905225554 80 235 0.0 0.0 0.00 0.00 0.00 74 1016.5
20260905225049 80 224 0.0 0.0 0.00 0.00 0.00 72 1016.5
20260905224549 80 274 0.0 0.9 0.00 0.00 0.00 70 1016.6
20260905224049 80 29 0.0 1.7 0.00 0.00 0.00 70 1016.6
20260905223547 81 302 0.9 0.9 0.00 0.00 0.00 70 1016.6
20260905223042 81 299 0.0 0.9 0.00 0.00 0.00 69 1016.7
20260905222537 82 288 0.0 0.0 0.00 0.00 0.00 68 1016.7
20260905222032 82 288 0.9 1.7 0.00 0.00 0.00 67 1016.2
20260905221529 82 355 2.6 5.2 0.00 0.00 0.00 66 1016.2
20260905221024 82 319 2.6 5.2 0.00 0.00 0.00 66 1016.2
20260905220520 82 250 0.9 3.5 0.00 0.00 0.00 66 1016.1
20260905220016 82 327 0.9 2.6 0.00 0.00 0.00 67 1016.2
20260905215510 82 359 0.9 3.5 0.00 0.00 0.00 65 1016.1
20260905215006 83 261 0.0 0.0 0.00 0.00 0.00 66 1015.8
20260905214501 83 222 0.0 1.7 0.00 0.00 0.00 68 1015.9
20260905213956 83 340 0.0 0.9 0.00 0.00 0.00 66 1015.9
20260905213452 83 323 0.9 2.6 0.00 0.00 0.00 66 1015.8
20260905212947 84 301 0.9 0.9 0.00 0.00 0.00 66 1015.8
20260905212442 84 349 0.0 0.9 0.00 0.00 0.00 66 1015.8
20260905211941 85 19 0.0 1.7 0.00 0.00 0.00 66 1015.7
20260905211437 85 337 0.9 3.5 0.00 0.00 0.00 63 1015.9
20260905210932 85 262 0.0 1.7 0.00 0.00 0.00 63 1015.8
20260905210432 85 314 1.7 1.7 0.00 0.00 0.00 62 1015.5
20260905205931 86 344 0.9 2.6 0.00 0.00 0.00 60 1015.7
20260905205426 86 204 0.9 1.7 0.00 0.00 0.00 64 1015.4
20260905204925 86 274 0.0 2.6 0.00 0.00 0.00 63 1015.7
20260905204422 86 294 0.0 2.6 0.00 0.00 0.00 62 1015.5
20260905203920 86 323 2.6 3.5 0.00 0.00 0.00 63 1015.5
20260905203416 85 342 0.9 1.7 0.00 0.00 0.00 64 1015.5
20260905202912 85 309 1.7 2.6 0.00 0.00 0.00 63 1015.8
20260905202407 85 347 1.7 2.6 0.00 0.00 0.00 63 1015.5
20260905201902 86 307 2.6 2.6 0.00 0.00 0.00 63 1015.7
20260905201357 85 292 0.9 2.6 0.00 0.00 0.00 66 1015.8
20260905200851 86 315 0.9 1.7 0.00 0.00 0.00 62 1015.5
20260905200347 85 317 0.9 1.7 0.00 0.00 0.00 64 1015.5
20260905195845 85 22 1.7 3.5 0.00 0.00 0.00 68 1015.9
20260905195341 85 330 0.0 0.9 0.00 0.00 0.00 64 1015.9
20260905194836 85 24 2.6 7.0 0.00 0.00 0.00 64 1016.2
20260905194336 86 273 1.7 2.6 0.00 0.00 0.00 64 1016.2
20260905193835 87 7 0.0 0.9 0.00 0.00 0.00 67 1016.1
20260905193330 85 32 0.9 2.6 0.00 0.00 0.00 64 1016.3
20260905192826 87 328 3.5 5.2 0.00 0.00 0.00 64 1016.3
20260905192322 85 258 0.0 1.7 0.00 0.00 0.00 65 1016.3
20260905191821 86 43 1.7 2.6 0.00 0.00 0.00 62 1016.4
20260905191320 86 289 1.7 2.6 0.00 0.00 0.00 61 1016.5
20260905190819 85 169 1.7 2.6 0.00 0.00 0.00 62 1016.5
20260905190319 85 356 1.7 1.7 0.00 0.00 0.00 67 1016.5
20260905185818 85 296 0.0 2.6 0.00 0.00 0.00 67 1016.4
20260905185313 85 237 0.9 2.6 0.00 0.00 0.00 73 1016.7
20260905184812 84 244 0.0 1.7 0.00 0.00 0.00 71 1016.9
20260905184311 84 245 0.0 1.7 0.00 0.00 0.00 77 1016.8
20260905183810 83 148 0.0 1.7 0.00 0.00 0.00 78 1017.0
20260905183306 82 141 0.0 1.7 0.00 0.00 0.00 75 1017.0
20260905182800 82 189 0.0 1.7 0.00 0.00 0.00 73 1017.0
20260905182259 84 262 0.0 1.7 0.00 0.00 0.00 73 1017.1
20260905181755 83 268 1.7 1.7 0.00 0.00 0.00 74 1017.2
20260905181254 83 254 2.6 3.5 0.00 0.00 0.00 72 1017.2
20260905180749 82 198 0.0 0.9 0.00 0.00 0.00 75 1017.5
20260905180244 82 197 0.9 2.6 0.00 0.00 0.00 78 1017.7
20260905175739 83 213 4.3 7.0 0.00 0.00 0.00 77 1017.9
20260905175239 81 265 0.0 2.6 0.00 0.00 0.00 81 1018.0
20260905174734 81 245 1.7 3.5 0.00 0.00 0.00 78 1018.0
20260905174229 80 202 1.7 3.5 0.00 0.00 0.00 80 1018.2
20260905173720 79 265 0.0 0.9 0.00 0.00 0.00 84 1018.4
20260905173215 79 112 0.0 0.0 0.00 0.00 0.00 83 1018.4
20260905172714 78 219 1.7 2.6 0.00 0.00 0.00 83 1018.3
20260905172209 78 213 4.3 5.2 0.00 0.00 0.00 84 1018.5
20260905171705 78 226 0.9 1.7 0.00 0.00 0.00 83 1018.5
20260905171201 77 4 0.0 1.7 0.00 0.00 0.00 86 1018.3
20260905170658 77 199 0.9 3.5 0.00 0.00 0.00 86 1018.2
20260905170158 76 222 0.0 2.6 0.00 0.00 0.00 89 1018.3
20260905165657 75 229 2.6 5.2 0.00 0.00 0.00 89 1018.5
20260905165152 75 232 2.6 3.5 0.00 0.00 0.00 90 1018.4
20260905164647 76 233 4.3 5.2 0.00 0.00 0.00 89 1018.2
20260905164147 75 300 2.6 2.6 0.00 0.00 0.00 87 1018.1
20260905163643 74 286 1.7 3.5 0.00 0.00 0.00 90 1018.3
20260905163139 74 322 5.2 8.7 0.00 0.00 0.00 88 1017.5
20260905162635 75 215 3.5 3.5 0.00 0.00 0.00 88 1017.6
20260905162134 75 289 0.9 2.6 0.00 0.00 0.00 88 1018.0
20260905161629 74 341 0.9 1.7 0.00 0.00 0.00 88 1018.0
20260905161127 74 323 3.5 5.2 0.00 0.00 0.00 88 1018.3
20260905160627 74 207 3.5 3.5 0.00 0.00 0.00 88 1018.0
20260905160121 75 238 2.6 5.2 0.00 0.00 0.00 87 1018.7
20260905155620 76 209 1.7 3.5 0.00 0.00 0.00 87 1018.8
20260905155119 76 212 0.0 3.5 0.00 0.00 0.00 88 1018.9
20260905154614 76 95 0.0 0.0 0.00 0.00 0.00 88 1019.2
20260905154109 76 65 0.0 0.9 0.00 0.00 0.00 89 1019.3
20260905153605 76 238 0.0 0.0 0.00 0.00 0.00 90 1019.3
20260905153100 75 115 0.0 0.0 0.00 0.00 0.00 89 1019.5
20260905152555 74 24 0.0 0.0 0.00 0.00 0.00 93 1019.7
20260905152050 73 22 0.0 0.9 0.00 0.00 0.00 94 1019.9
20260905151545 72 40 0.9 0.9 0.00 0.00 0.00 96 1020.4
20260905151040 72 321 0.0 0.9 0.00 0.00 0.00 98 1019.8
20260905150535 71 287 0.0 0.0 0.00 0.00 0.00 99 1019.9
20260905150033 71 251 0.0 0.0 0.00 0.00 0.00 99 1019.9
20260905145526 71 246 0.0 1.7 0.00 0.00 0.00 99 1019.8
20260905145020 70 300 0.0 0.0 0.00 0.00 0.00 99 1019.7
20260905144515 69 105 0.9 3.5 0.00 0.00 0.00 99 1019.5
20260905144014 69 130 0.0 0.0 0.00 0.00 0.00 99 1019.6
20260905143514 68 329 0.0 0.0 0.00 0.00 0.00 99 1019.7
20260905143009 68 321 0.0 0.0 0.00 0.00 0.00 99 1019.6
20260905142507 68 341 0.0 0.0 0.00 0.00 0.00 99 1019.8
20260905142003 68 350 0.0 2.6 0.00 0.00 0.00 99 1019.6
20260905141457 67 104 2.6 3.5 0.00 0.00 0.00 99 1019.8
20260905140954 67 91 0.9 2.6 0.00 0.00 0.00 99 1019.6
20260905140449 68 218 0.9 0.9 0.00 0.00 0.00 99 1019.8
20260905135947 67 210 0.0 1.7 0.00 0.00 0.00 99 1020.1
20260905135443 67 188 0.0 0.9 0.00 0.00 0.00 99 1020.1
20260905134939 67 49 0.9 2.6 0.00 0.00 0.00 99 1020.1
20260905134438 67 125 0.0 0.0 0.00 0.00 0.00 99 1019.0
20260905133937 68 113 0.0 0.0 0.00 0.00 0.00 99 1019.0
20260905133432 67 97 0.0 0.0 0.00 0.00 0.00 99 1018.9
20260905132931 68 93 0.0 0.0 0.00 0.00 0.00 99 1018.7
20260905132426 68 227 0.0 0.0 0.00 0.00 0.00 99 1018.6
20260905131921 68 59 0.0 0.0 0.00 0.00 0.00 99 1018.7
20260905131417 67 61 0.0 0.0 0.00 0.00 0.00 99 1018.5
20260905130912 67 79 0.0 0.0 0.00 0.00 0.00 99 1018.7
20260905130411 67 19 0.0 0.0 0.00 0.00 0.00 99 1018.5
20260905125906 67 111 0.0 0.0 0.00 0.00 0.00 99 1018.6
20260905125401 67 118 0.0 0.0 0.00 0.00 0.00 99 1018.6
20260905124857 67 199 0.0 0.0 0.00 0.00 0.00 99 1018.6
20260905124353 67 91 0.0 0.0 0.00 0.00 0.00 99 1018.6
20260905123853 66 111 0.0 0.0 0.00 0.00 0.00 99 1018.8
20260905123350 66 108 0.0 0.0 0.00 0.00 0.00 99 1018.7
20260905122850 67 149 0.0 0.0 0.00 0.00 0.00 99 1018.5
20260905122344 66 237 0.0 0.0 0.00 0.00 0.00 99 1018.7
20260905121839 66 139 0.0 0.0 0.00 0.00 0.00 99 1018.8
20260905121336 66 99 0.0 1.7 0.00 0.00 0.00 99 1018.8
20260905120834 66 111 0.9 2.6 0.00 0.00 0.00 99 1018.6
20260905120329 66 124 0.0 0.0 0.00 0.00 0.00 99 1018.4
20260905115824 66 107 0.0 0.0 0.00 0.00 0.00 99 1018.5
20260905115323 66 104 0.0 0.0 0.00 0.00 0.00 99 1018.5
20260905114823 66 152 0.0 0.0 0.00 0.00 0.00 99 1018.4
20260905114322 66 107 0.0 0.0 0.00 0.00 0.00 99 1018.4
20260905113821 66 107 0.9 0.9 0.00 0.00 0.00 99 1018.3
20260905113317 65 110 0.0 0.0 0.00 0.00 0.00 99 1018.3
20260905112813 65 115 0.0 0.0 0.00 0.00 0.00 99 1018.4
20260905112307 65 104 0.0 1.7 0.00 0.00 0.00 99 1018.4
20260905111802 66 101 1.7 1.7 0.00 0.00 0.00 99 1018.4